Location: Oberstdorf
(47.4188°N, 10.2969°E)
Time: 02:40:26
(UTC+02:00)

ELECTRON R/B - Visible Passes

Search period start: 24 May 2018 00:00
Search period end: 03 June 2018 00:00
Orbit: 285 x 479 km, 82.9° (Epoch: 23 May)

Date Brightness Start Highest point End Pass type
(mag) Time Alt. Az. Time Alt. Az. Time Alt. Az.
24 May 4.5 21:46:40 10° NNW 21:49:06 73° W 21:51:32 10° S visible
25 May 7.4 22:23:49 10° WNW 22:25:07 13° W 22:26:26 10° WSW visible
27 May 7.3 22:02:50 10° NW 22:04:27 16° W 22:06:05 10° SW visible
29 May 7.2 21:41:35 10° NW 21:43:27 19° W 21:45:22 10° SW visible
